Погода в Гранитном

Россия / Челябинская область     52°58′28″N   58°58′02″E
темп.,
°C
ветер,
м/с
пор.,
м/с
влажн.,
%
обл.,
%
осадки,
мм/ч
давл.,
гПа
погр.,
м
8 мая, сб
сб823:00+13ю1142100 0.0 101910
02:00+12ю0145100 0.0 101810
05:00+11в1148100 0.0 101810
08:00+13вюв014495 0.0 1018131
11:00+18юв1135100 0.0 10171169
14:00+19с1229100 0.0 10162546
17:00+20ссв1226100 0.0 10152582
20:00+17с3545100 0.0 1015291
9 мая, вс
вс923:00+15ссв3747100 0.0 1015271
02:00+13с2558100 0.0 1015124
05:00+12с2264100 0.0 101634
08:00+14с465655 0.0 1016407
11:00+18ссв46335 0.0 10152032
14:00+20ссв452669 0.0 10152867
17:00+21ссв452694 0.0 10152695
20:00+18с244084 0.0 1016102
10 мая, пн
пн1023:00+14с23505 0.0 101725
02:00+12с35575 0.0 101870
05:00+10св34635 0.0 101968
08:00+14ссв35565 0.0 1021321
11:00+18всв454416 0.0 10211780
14:00+21всв3433100 0.0 10202531
17:00+19с2441100 0.0 1021189
20:00+17ссз3651100 0.0 1022118
11 мая, вт
вт1123:00+14ссв335642 0.0 102332
02:00+12юв125399 0.0 102414
05:00+11всв1150100 0.0 102410
08:00+15зюз004294 0.0 1025158
11:00+20юз2233100 0.0 1025849
14:00+22зюз3432100 0.0 10242393
17:00+23зсз4532100 0.0 10232579
20:00+18всв225598 0.0 102422
12 мая, ср
ср1223:00+15ссз346214 0.0 102564
02:00+12ссв49734 0.0 1027260
05:00+10ссв386982 0.0 1028196
08:00+12св576162 0.0 1028517
11:00+16св553885 0.0 10281252
14:00+18св4429100 0.0 10271594
17:00+19с342995 0.0 10261860
20:00+17св124014 0.0 102624